fecha,temperaturaMaxima,temperaturaMinima,pluviometro
1997-01-01,25.4,16.3,0.0
1997-01-02,30.4,14.4,0.0
1997-01-03,32.2,17.0,0.0
1997-01-04,29.6,18.3,0.0
1997-01-05,33.4,15.0,0.0
1997-01-06,33.0,20.8,6.8
1997-01-07,26.0,20.3,33.6
1997-01-08,28.6,18.4,0.0
1997-01-09,30.0,18.6,0.0
1997-01-10,31.0,17.6,0.0
1997-01-11,32.0,20.4,0.0
1997-01-12,34.2,20.4,17.6
1997-01-13,28.2,20.0,0.0
1997-01-14,29.0,21.0,0.0
1997-01-15,28.4,20.6,0.0
1997-01-16,32.0,19.8,0.0
1997-01-17,31.6,21.8,50.5
1997-01-18,28.6,20.0,0.0
1997-01-19,29.6,19.6,0.0
1997-01-20,30.6,17.0,0.0
1997-01-21,30.4,19.4,0.0
1997-01-22,29.0,18.8,0.0
1997-01-23,31.0,19.0,0.0
1997-01-24,29.8,18.8,0.0
1997-01-25,33.0,21.6,0.0
1997-01-26,33.0,21.6,0.0
1997-01-27,31.9,23.0,0.3
1997-01-28,32.0,21.3,33.8
1997-01-29,26.4,20.2,4.6
1997-01-30,29.2,19.0,0.0
1997-01-31,31.6,18.2,0.0
1997-02-01,32.8,19.3,0.6
1997-02-02,22.9,14.4,0.0
1997-02-03,30.3,11.9,0.0
1997-02-04,27.1,17.8,8.1
1997-02-05,21.0,16.0,0.0
1997-02-06,21.9,13.9,0.0
1997-02-07,26.5,14.1,0.0
1997-02-08,28.1,19.0,4.0
1997-02-09,32.5,21.5,41.0
1997-02-10,25.7,17.0,0.2
1997-02-11,21.7,11.5,0.0
1997-02-12,24.4,11.8,0.0
1997-02-13,27.4,15.7,0.0
1997-02-14,27.5,16.5,0.0
1997-02-15,28.4,17.7,0.0
1997-02-16,30.0,19.0,0.3
1997-02-17,27.7,19.7,0.0
1997-02-18,28.5,17.9,0.2
1997-02-19,20.0,15.8,0.0
1997-02-20,20.1,11.6,0.0
1997-02-21,26.1,9.9,0.0
1997-02-22,29.6,16.9,0.0
1997-02-23,28.0,16.3,0.0
1997-02-24,31.1,17.4,0.0
1997-02-25,31.8,19.2,0.0
1997-02-26,24.8,21.0,0.0
1997-02-27,25.8,16.7,0.0
1997-02-28,24.4,13.8,0.0
1997-03-01,24.8,16.0,0.0
1997-03-02,25.1,14.9,0.0
1997-03-03,25.0,15.3,0.0
1997-03-04,24.2,13.4,0.0
1997-03-05,24.6,13.8,0.0
1997-03-06,26.0,16.6,0.0
1997-03-07,31.4,16.0,0.0
1997-03-08,28.2,18.4,0.0
1997-03-09,25.8,16.2,0.0
1997-03-10,31.4,20.0,17.1
1997-03-11,26.6,21.6,1.8
1997-03-12,24.8,18.5,0.0
1997-03-13,23.0,15.0,0.0
1997-03-14,23.6,13.6,0.0
1997-03-15,25.4,11.8,0.0
1997-03-16,23.2,15.4,0.0
1997-03-17,24.2,14.4,0.4
1997-03-18,25.2,17.2,0.0
1997-03-19,29.6,14.8,0.0
1997-03-20,28.8,18.1,26.9
1997-03-21,22.4,18.0,3.2
1997-03-22,24.0,17.5,1.5
1997-03-23,21.4,14.4,0.0
1997-03-24,19.4,8.8,0.0
1997-03-25,27.0,10.4,0.0
1997-03-26,28.4,14.2,0.0
1997-03-27,29.8,17.2,0.0
1997-03-28,31.0,16.4,0.0
1997-03-29,30.8,17.2,0.0
1997-03-30,30.2,16.0,0.0
1997-03-31,23.6,15.4,0.0
1997-04-01,30.3,13.6,0.0
1997-04-02,30.2,14.8,0.0
1997-04-03,20.4,11.8,0.0
1997-04-04,17.8,9.6,0.0
1997-04-05,21.2,6.4,0.0
1997-04-06,22.6,10.4,0.0
1997-04-07,26.6,10.4,0.0
1997-04-08,27.2,12.1,0.0
1997-04-09,26.4,15.6,12.4
1997-04-10,24.0,17.0,2.9
1997-04-11,21.4,14.8,0.0
1997-04-12,25.6,14.4,0.0
1997-04-13,29.2,17.6,0.0
1997-04-14,30.7,19.6,0.0
1997-04-15,31.2,18.7,0.0
1997-04-16,29.1,17.7,0.0
1997-04-17,27.0,16.7,0.0
1997-04-18,27.8,17.0,27.2
1997-04-19,21.6,16.1,0.0
1997-04-20,18.0,10.9,0.0
1997-04-21,21.4,10.0,0.0
1997-04-22,24.6,13.3,0.0
1997-04-23,26.4,15.2,12.4
1997-04-24,19.8,7.3,7.0
1997-04-25,17.0,10.9,0.0
1997-04-26,20.2,5.6,0.0
1997-04-27,21.4,12.8,0.0
1997-04-28,16.0,8.8,0.0
1997-04-29,22.0,7.0,0.0
1997-04-30,22.4,13.0,0.0
1997-05-01,28.2,16.3,0.0
1997-05-02,18.2,11.2,0.0
1997-05-03,16.0,8.5,0.0
1997-05-04,19.8,6.6,0.0
1997-05-05,26.2,9.4,0.0
1997-05-06,28.6,14.0,0.0
1997-05-07,28.6,18.0,0.0
1997-05-08,28.2,16.8,0.0
1997-05-09,25.4,14.8,0.0
1997-05-10,25.4,15.2,0.0
1997-05-11,26.0,14.6,0.0
1997-05-12,26.4,15.0,0.0
1997-05-13,26.4,15.6,0.0
1997-05-14,22.6,13.6,0.0
1997-05-15,23.6,13.0,0.0
1997-05-16,25.4,14.2,0.0
1997-05-17,27.2,15.8,3.9
1997-05-18,20.9,17.4,33.0
1997-05-19,18.4,15.0,13.2
1997-05-20,20.4,13.0,7.4
1997-05-21,17.0,10.9,22.2
1997-05-22,12.0,8.7,0.0
1997-05-23,10.4,4.1,0.0
1997-05-24,12.2,1.6,0.0
1997-05-25,11.6,5.1,0.0
1997-05-26,13.0,2.8,0.0
1997-05-27,12.8,5.6,0.0
1997-05-28,14.4,4.6,0.0
1997-05-29,16.0,3.6,0.0
1997-05-30,18.2,10.0,0.0
1997-05-31,18.9,9.0,0.0
1997-06-01,18.5,9.4,0.0
1997-06-02,15.6,9.4,5.8
1997-06-03,19.4,10.6,0.0
1997-06-04,19.6,10.6,47.0
1997-06-05,16.4,13.2,0.6
1997-06-06,13.2,8.2,4.8
1997-06-07,12.4,8.2,0.4
1997-06-08,11.0,6.4,0.0
1997-06-09,15.8,6.4,0.0
1997-06-10,16.0,8.6,0.0
1997-06-11,18.8,7.6,0.0
1997-06-12,16.6,9.0,0.0
1997-06-13,17.0,11.5,15.0
1997-06-14,10.8,7.7,8.1
1997-06-15,12.8,8.2,1.3
1997-06-16,11.8,10.4,0.0
1997-06-17,14.8,8.8,0.0
1997-06-18,18.2,7.6,0.0
1997-06-19,19.0,8.6,0.0
1997-06-20,13.0,9.2,0.0
1997-06-21,13.2,11.6,0.4
1997-06-22,16.4,8.7,0.0
1997-06-23,13.0,8.6,1.1
1997-06-24,16.2,8.4,0.0
1997-06-25,16.0,5.4,0.0
1997-06-26,10.6,3.4,0.0
1997-06-27,7.2,0.4,0.0
1997-06-28,11.2,-0.4,0.0
1997-06-29,14.0,1.2,0.0
1997-06-30,15.2,3.0,0.0
1997-07-01,17.0,5.3,0.0
1997-07-02,12.0,4.7,0.0
1997-07-03,14.9,2.9,0.0
1997-07-04,9.7,3.2,0.0
1997-07-05,12.5,1.1,0.0
1997-07-06,11.8,5.5,0.0
1997-07-07,16.0,4.6,0.0
1997-07-08,17.0,10.0,22.0
1997-07-09,20.4,12.6,8.3
1997-07-10,11.4,10.0,0.3
1997-07-11,12.8,9.0,0.0
1997-07-12,16.6,9.2,12.3
1997-07-13,15.9,10.6,2.8
1997-07-14,17.6,6.4,0.0
1997-07-15,14.6,5.4,0.0
1997-07-16,13.8,3.4,0.0
1997-07-17,10.4,3.1,0.0
1997-07-18,10.4,0.6,0.0
1997-07-19,10.4,2.6,0.0
1997-07-20,12.8,2.6,0.0
1997-07-21,15.2,6.8,0.0
1997-07-22,17.0,7.6,0.3
1997-07-23,19.5,11.2,0.0
1997-07-24,20.0,11.0,0.0
1997-07-25,22.7,12.5,0.0
1997-07-26,25.8,17.5,0.0
1997-07-27,25.4,17.5,0.0
1997-07-28,28.0,18.2,0.0
1997-07-29,28.2,18.0,0.0
1997-07-30,25.6,13.3,0.0
1997-07-31,15.5,10.1,0.0
1997-08-01,13.8,8.3,0.0
1997-08-02,13.2,8.4,0.0
1997-08-03,12.0,4.9,0.0
1997-08-04,9.0,2.5,0.0
1997-08-05,9.6,-0.6,0.0
1997-08-06,10.4,5.2,0.0
1997-08-07,10.8,3.2,0.0
1997-08-08,15.9,1.6,0.0
1997-08-09,18.1,4.5,0.0
1997-08-10,20.4,9.3,0.0
1997-08-11,23.2,12.0,0.0
1997-08-12,20.9,9.2,0.0
1997-08-13,23.0,10.7,0.0
1997-08-14,26.4,14.5,0.2
1997-08-15,14.9,9.6,16.5
1997-08-16,20.1,10.2,16.8
1997-08-17,24.8,16.2,31.0
1997-08-18,18.4,12.3,0.4
1997-08-19,15.6,10.9,0.0
1997-08-20,10.2,6.6,0.9
1997-08-21,10.2,5.0,2.2
1997-08-22,12.6,6.2,0.4
1997-08-23,13.0,6.6,0.0
1997-08-24,16.4,4.2,0.0
1997-08-25,22.3,9.2,0.0
1997-08-26,24.4,12.5,0.0
1997-08-27,26.8,14.2,0.0
1997-08-28,29.0,16.2,0.0
1997-08-29,30.0,19.6,0.0
1997-08-30,28.8,13.1,17.8
1997-08-31,13.8,11.0,22.5
1997-09-01,12.4,10.6,0.5
1997-09-02,13.3,10.0,0.0
1997-09-03,20.4,12.4,2.5
1997-09-04,15.8,11.7,0.0
1997-09-05,17.5,10.2,0.0
1997-09-06,21.0,8.3,11.7
1997-09-07,20.2,13.2,0.7
1997-09-08,18.6,10.3,0.0
1997-09-09,18.0,9.0,0.0
1997-09-10,12.4,4.0,0.0
1997-09-11,13.4,2.4,0.0
1997-09-12,17.7,7.6,0.0
1997-09-13,18.9,7.7,0.0
1997-09-14,19.6,5.7,0.0
1997-09-15,17.4,5.8,0.0
1997-09-16,22.6,7.6,0.0
1997-09-17,16.5,9.5,0.0
1997-09-18,13.4,5.3,0.0
1997-09-19,16.6,4.8,2.0
1997-09-20,13.2,5.2,6.7
1997-09-21,18.6,5.0,0.0
1997-09-22,19.8,8.6,0.0
1997-09-23,19.2,11.0,0.0
1997-09-24,15.2,8.0,0.0
1997-09-25,14.7,7.0,0.0
1997-09-26,17.4,4.3,0.0
1997-09-27,17.2,8.2,0.0
1997-09-28,20.2,11.4,0.0
1997-09-29,24.8,10.2,0.0
1997-09-30,21.0,10.8,0.0
1997-10-01,18.4,10.8,0.0
1997-10-02,19.0,9.0,0.0
1997-10-03,19.6,12.0,5.0
1997-10-04,17.0,13.0,30.5
1997-10-05,17.4,9.0,0.0
1997-10-06,17.8,8.0,0.0
1997-10-07,22.0,7.4,0.0
1997-10-08,22.0,10.4,0.0
1997-10-09,23.6,12.4,0.0
1997-10-10,25.7,13.8,11.5
1997-10-11,23.7,12.7,15.9
1997-10-12,21.4,15.0,0.0
1997-10-13,17.8,14.6,7.6
1997-10-14,19.0,15.4,26.0
1997-10-15,18.2,11.7,0.0
1997-10-16,14.4,9.2,0.0
1997-10-17,14.4,7.9,0.0
1997-10-18,20.8,6.8,0.0
1997-10-19,23.2,9.8,0.0
1997-10-20,24.0,11.2,0.0
1997-10-21,24.2,14.4,0.0
1997-10-22,25.6,15.2,0.2
1997-10-23,21.4,14.9,0.8
1997-10-24,26.0,12.2,0.0
1997-10-25,28.3,15.3,0.0
1997-10-26,25.4,12.7,0.0
1997-10-27,20.6,17.6,12.0
1997-10-28,19.6,14.7,0.5
1997-10-29,17.2,9.1,0.0
1997-10-30,18.2,7.0,4.8
1997-10-31,15.0,8.5,1.0
1997-11-01,20.0,5.8,10.6
1997-11-02,19.8,14.6,1.8
1997-11-03,19.4,12.4,0.0
1997-11-04,22.6,11.8,0.0
1997-11-05,22.1,15.8,12.2
1997-11-06,24.2,16.6,0.0
1997-11-07,26.8,17.0,0.0
1997-11-08,30.4,18.0,3.2
1997-11-09,23.2,15.1,0.0
1997-11-10,26.0,15.2,4.8
1997-11-11,22.8,16.4,1.2
1997-11-12,20.0,16.1,6.7
1997-11-13,21.6,12.4,0.0
1997-11-14,24.5,12.2,0.0
1997-11-15,27.7,11.7,0.0
1997-11-16,21.4,12.3,0.0
1997-11-17,18.0,9.8,0.0
1997-11-18,21.4,8.0,0.0
1997-11-19,25.6,12.0,0.0
1997-11-20,24.0,15.0,0.0
1997-11-21,28.4,14.6,4.4
1997-11-22,30.0,13.4,0.0
1997-11-23,28.6,18.0,0.0
1997-11-24,20.4,11.8,2.2
1997-11-25,15.6,12.0,16.0
1997-11-26,22.4,14.8,0.0
1997-11-27,22.7,14.2,0.0
1997-11-28,27.5,13.2,0.1
1997-11-29,22.8,16.2,7.8
1997-11-30,24.2,15.7,0.0
1997-12-01,23.4,13.9,0.0
1997-12-02,28.0,12.0,11.2
1997-12-03,22.7,12.6,0.0
1997-12-04,23.6,11.3,0.0
1997-12-05,26.2,11.6,0.0
1997-12-06,32.2,15.6,3.8
1997-12-07,22.2,13.6,0.0
1997-12-08,29.2,12.0,0.0
1997-12-09,29.2,17.2,2.2
1997-12-10,28.8,17.4,0.0
1997-12-11,29.9,18.4,0.0
1997-12-12,26.0,19.2,28.6
1997-12-13,22.5,18.3,3.7
1997-12-14,24.0,16.6,1.1
1997-12-15,21.9,14.8,0.0
1997-12-16,21.2,13.8,0.0
1997-12-17,23.4,11.6,0.0
1997-12-18,23.2,12.4,33.6
1997-12-19,24.4,17.9,2.2
1997-12-20,29.8,16.5,0.0
1997-12-21,19.0,15.2,23.7
1997-12-22,18.1,13.8,21.7
1997-12-23,20.3,14.2,0.0
1997-12-24,26.4,13.1,0.0
1997-12-25,30.0,17.2,3.1
1997-12-26,25.3,17.7,90.0
1997-12-27,27.0,17.1,0.0
1997-12-28,26.8,16.2,0.0
1997-12-29,28.0,18.7,1.6
1997-12-30,23.4,15.1,0.0
1997-12-31,19.8,12.0,16.3
